Flag for Australia Weather past 2 weeks in Geraldton, Western Australia, Australia

Now
58 °F

Passing clouds.


Feels Like: 57 °F
Forecast: 51 / 65 °F
Wind: 7 mph from Southwest

Location: Geraldton Airport

Current Time: Jul 29, 2014 at 7:34:45 PM

Latest Report: Jul 29, 2014 at 6:00 PM


Visibility: 19 mi

Pressure: 30.23 "Hg

Humidity: 77%

Dew point: 51 °F

Location of GeraldtonLocation

Historic Weather in Geraldton — Graph

°F

Geraldton temperature yesterday

Maximum temperature yesterday: 67 °F (at 3:00 PM)
Minimum temperature yesterday: 49 °F (at 11:00 PM)
Average temperature yesterday: 56 °F

Past Weeks' High & Low Weather Summary

 TemperatureHumidityPressure
High71 °F (Jul 18, 3:00 PM)98% (Jul 25, 2:00 AM)30.32 "Hg (Jul 25, 2:00 AM)
Low45 °F (Jul 19, 2:00 AM)33% (Jul 19, 12:00 PM)29.92 "Hg (Jul 19, 3:00 PM)
Average57 °F79%30.16 "Hg
* Reported Jul 14 6:00 PM — Jul 29 6:00 PM, Geraldton, Weather by CustomWeather, © 2014

Note: Actual official high and low records may vary slightly from our data, if they occured in-between our weather recording intervals... More about our weather records

Advertising

Geraldton weather history for previous 24 hours

 ConditionsComfort  
Time TempWeatherWind HumidityBarometerVisibility
6:00 PM
Jul 29
58 °FPassing clouds.7 mph77%30.23 "Hg19 mi
5:00 PM64 °FMild.8 mph65%30.22 "HgN/A
3:00 PM68 °FPassing clouds.3 mph51%30.22 "Hg19 mi
2:00 PM67 °FMild.6 mph51%30.22 "HgN/A
12:00 PM66 °FPassing clouds.7 mph55%30.26 "Hg19 mi
11:00 AM64 °FMild.7 mph69%30.28 "HgN/A
9:00 AM53 °FPassing clouds.13 mph90%30.30 "Hg19 mi
8:00 AM49 °FCool.13 mph93%30.27 "HgN/A
6:00 AM46 °FClear.14 mph96%30.24 "Hg19 mi
5:00 AM47 °FCool.10 mph95%30.23 "HgN/A
3:00 AM47 °FCool.10 mph95%30.25 "HgN/A
2:00 AM47 °FCool.8 mph95%30.24 "HgN/A
12:00 AM49 °FCool.10 mph95%30.26 "HgN/A
11:00 PM
Jul 28
49 °FCool.9 mph95%30.26 "HgN/A
9:00 PM51 °FPassing clouds.7 mph93%30.27 "Hg19 mi
8:00 PM50 °FCool.5 mph94%30.26 "HgN/A
Weather by CustomWeather, © 2014

See weather overviewHow to use our weather pages